Location: Bush Observatory
(40.2653°N, 94.3194°W)
Time: 22:06:10
(UTC-05:00)

Vanguard 1 - Visible Passes

Search period start: 18 April 2015 00:00
Search period end: 28 April 2015 00:00
Orbit: 652 x 3833 km, 34.2° (Epoch: 17 April)

Date Brightness Start Highest point End Pass type
(mag) Time Alt. Az. Time Alt. Az. Time Alt. Az.
19 Apr 13.9 05:42:47 10° S 05:51:56 16° SSE 06:00:21 10° ESE visible
20 Apr 13.7 06:00:44 10° S 06:13:41 22° SSE 06:23:51 10° ESE visible
22 Apr 14.1 04:24:54 10° SSE 04:32:24 14° SE 04:40:47 10° ESE visible
23 Apr 13.9 04:41:29 10° S 04:54:10 20° SE 05:05:35 10° ESE visible
24 Apr 13.7 04:59:59 10° SSW 05:15:52 26° SSE 05:28:38 10° E visible
25 Apr 14.2 03:11:51 10° SE 03:12:27 10° SE 03:15:59 10° SE visible
25 Apr 13.5 05:19:26 10° SSW 05:37:30 33° SSE 05:50:57 10° E visible
26 Apr 14.0 03:23:41 10° SSE 03:34:10 16° SE 03:45:34 10° ESE visible
26 Apr 13.3 05:39:31 10° SSW 05:59:07 40° SSE 06:12:51 10° E visible
27 Apr 13.8 03:41:46 11° S 03:55:48 23° SE 04:09:42 10° E visible
